Location: Peebles
(55.6412°N, 3.1714°W)
Time: 13:53:51
(UTC+01:00)

Cosmos 1980 Rocket - Pass Details

Date: 26 September 2021
Orbit: 827 x 851 km, 71.0° (Epoch: 17 October)

Event Time Altitude Azimuth Distance (km) Brightness Sun altitude
Exits shadow 23:43:31 15° 50° (NE) 2,118 4.4 -33.6°
Drops below altitude 10° 23:44:35 10° 44° (NE) 2,477 4.8 -33.6°
Sets 23:47:12 0° 37° (NE) 3,420 5.7 -33.8°
